KM5RF Weather Reports


time (UTC)temp
C
wind
direction
speed
KPH
gust
KPH
rain 1hr
cm
rain 24hr
cm
rain mn
cm
humidity
%
barometer
mb
20260509134515 22 306 9.7 19.3 0.00 0.00 0.00 77 1010.6
20260509133020 22 310 14.5 22.5 0.00 0.00 0.00 78 1010.4
20260509131522 21 284 4.8 11.3 0.00 0.00 0.00 84 1010.1
20260509130028 21 169 0.0 0.0 0.00 0.00 0.00 90 1010.0
20260509124530 20 169 0.0 0.0 0.00 0.00 0.00 90 1010.1
20260509123009 20 169 0.0 0.0 0.00 0.00 0.00 90 1010.0
20260509121527 20 288 0.0 0.0 0.00 0.00 0.00 90 1010.2
20260509120022 20 288 0.0 0.0 0.00 0.00 0.00 89 1010.5
20260509114533 20 288 0.0 3.2 0.00 0.00 0.00 90 1010.6
20260509113033 20 286 0.0 3.2 0.00 0.00 0.00 90 1010.3
20260509111514 20 281 1.6 11.3 0.00 0.00 0.00 91 1010.2
20260509110020 20 280 9.7 24.1 0.00 0.00 0.00 91 1009.9
20260509104537 20 299 8.0 20.9 0.00 0.00 0.00 91 1009.7
20260509103006 20 224 4.8 14.5 0.00 0.00 0.00 91 1008.5
20260509101516 20 185 6.4 17.7 0.00 0.00 0.00 91 1007.9
20260509100016 20 180 9.7 25.7 0.00 0.00 0.00 90 1007.7
20260509094505 20 183 11.3 25.7 0.00 0.00 0.00 89 1007.6
20260509093002 20 172 14.5 27.4 0.00 0.00 0.00 89 1007.7
20260509091507 20 191 14.5 22.5 0.00 0.00 0.00 88 1007.7
20260509090014 20 169 8.0 12.9 0.00 0.00 0.00 87 1008.2
20260509084522 20 167 8.0 12.9 0.00 0.00 0.00 85 1008.6
20260509083022 20 173 4.8 14.5 0.00 0.00 0.00 85 1009.4
20260509081515 20 180 6.4 14.5 0.00 0.00 0.00 85 1009.9
20260509080012 20 192 1.6 11.3 0.00 0.00 0.00 85 1011.3
20260509074522 20 207 1.6 9.7 0.00 0.00 0.00 85 1011.5
20260509073020 20 256 1.6 6.4 0.00 0.00 0.00 85 1011.4
20260509071525 20 236 0.0 1.6 0.00 0.00 0.00 85 1011.3
20260509070012 20 275 0.0 3.2 0.00 0.00 0.00 85 1011.2
20260509064512 20 298 0.0 3.2 0.00 0.00 0.00 84 1011.5
20260509063025 20 350 0.0 4.8 0.00 0.00 0.00 84 1011.4
20260509061523 20 340 0.0 6.4 0.00 0.00 0.00 82 1011.3
20260509060029 20 355 1.6 3.2 0.00 0.00 0.00 80 1010.9
20260509054508 20 149 0.0 0.0 0.00 0.00 0.00 80 1010.6
20260509053011 20 149 0.0 1.6 0.00 0.00 0.00 80 1010.7
20260509051518 20 171 0.0 6.4 0.00 0.00 0.00 80 1010.4
20260509050022 20 163 0.0 4.8 0.00 0.00 0.00 79 1010.5
20260509044526 21 126 0.0 0.0 0.00 0.00 0.00 79 1011.2
20260509043011 21 126 0.0 3.2 0.00 0.00 0.00 79 1010.8
20260509041515 21 120 0.0 0.0 0.00 0.00 0.00 78 1010.7
20260509040022 21 120 0.0 0.0 0.00 0.00 0.00 78 1010.6
20260509034526 22 107 0.0 1.6 0.00 0.00 0.00 78 1010.6
20260509033028 22 144 0.0 3.2 0.00 0.00 0.00 78 1010.3
20260509031515 22 112 0.0 3.2 0.00 0.00 0.00 78 1010.2
20260509030014 21 165 0.0 6.4 0.00 0.00 0.00 79 1009.6
20260509024522 22 155 0.0 0.0 0.00 0.00 0.00 79 1009.7
20260509023029 22 155 0.0 0.0 0.00 0.00 0.00 79 1009.6
20260509021512 22 155 0.0 1.6 0.00 0.00 0.00 79 1009.5
20260509020024 22 177 0.0 1.6 0.00 0.00 0.00 79 1009.3
20260509014519 22 153 0.0 1.6 0.00 0.00 0.00 79 1009.2
20260509013037 22 153 0.0 3.2 0.00 0.00 0.00 78 1009.2
20260509011528 22 153 1.6 3.2 0.00 0.00 0.00 78 1009.2
20260509010012 22 153 1.6 8.0 0.00 0.00 0.00 78 1008.9
20260509004521 22 153 4.8 11.3 0.00 0.00 0.00 77 1008.5
20260509003024 23 174 1.6 6.4 0.00 0.00 0.00 76 1008.5
20260509001525 23 148 0.0 6.4 0.00 0.00 0.00 75 1008.5
20260509000028 23 121 3.2 8.0 0.00 0.00 0.00 75 1008.6
20260508234510 23 180 3.2 12.9 0.00 0.00 0.00 75 1008.6
20260508233022 23 126 3.2 14.5 0.00 0.00 0.00 75 1008.7
20260508231521 23 173 3.2 14.5 0.00 0.00 0.00 75 1008.7
20260508230037 23 183 6.4 19.3 0.00 0.00 0.00 75 1008.7
20260508224529 23 177 11.3 22.5 0.00 0.00 0.00 74 1008.8
20260508223021 23 153 8.0 17.7 0.00 0.00 0.00 74 1009.0
20260508221522 23 178 4.8 14.5 0.00 0.00 0.00 74 1009.1
20260508220027 22 179 3.2 11.3 0.00 0.00 0.00 73 1009.4
20260508214530 22 175 3.2 17.7 0.00 0.00 0.00 74 1009.4
20260508213037 22 111 11.3 27.4 0.00 0.00 0.00 75 1009.1
20260508211533 21 126 9.7 27.4 0.00 0.00 0.00 77 1009.1
20260508210026 20 118 12.9 20.9 0.00 0.00 0.00 78 1009.2
20260508204505 20 281 0.0 11.3 0.00 0.00 0.00 78 1011.6
20260508203005 21 178 4.8 17.7 0.00 0.00 0.00 76 1011.0
20260508201506 21 174 6.4 16.1 0.00 0.00 0.00 74 1011.4
20260508200004 21 165 8.0 16.1 0.00 0.00 0.00 73 1011.4
20260508194523 21 176 8.0 14.5 0.00 0.00 0.00 73 1011.2
20260508193006 21 143 6.4 11.3 0.00 0.00 0.00 72 1011.3
20260508191506 20 188 8.0 17.7 0.00 0.00 0.00 71 1011.6
20260508190012 21 191 6.4 19.3 0.00 0.00 0.00 72 1011.7
20260508184508 21 173 6.4 14.5 0.00 0.00 0.00 72 1012.0
20260508183016 21 161 3.2 12.9 0.00 0.00 0.00 72 1012.3
20260508181509 21 158 3.2 12.9 0.00 0.00 0.00 73 1012.4
20260508180015 21 128 6.4 12.9 0.00 0.00 0.00 70 1012.4
20260508174508 21 113 4.8 14.5 0.00 0.00 0.00 71 1012.6
20260508173010 20 113 4.8 14.5 0.00 0.00 0.00 72 1013.0
20260508171514 20 106 6.4 12.9 0.00 0.00 0.00 72 1013.1
20260508170010 20 168 6.4 17.7 0.00 0.00 0.00 72 1013.2
20260508164514 20 117 6.4 12.9 0.00 0.00 0.00 71 1013.3
20260508163017 20 143 3.2 11.3 0.00 0.00 0.00 73 1013.5
20260508161513 20 117 0.0 11.3 0.00 0.00 0.00 73 1014.0
20260508160012 19 118 0.0 6.4 0.00 0.00 0.00 73 1014.1
20260508154532 19 134 0.0 6.4 0.00 0.00 0.00 74 1014.4
20260508153015 18 190 1.6 6.4 0.00 0.00 0.00 74 1014.5
20260508151521 18 76 1.6 9.7 0.00 0.00 0.00 74 1014.6
20260508150014 18 117 1.6 9.7 0.00 0.00 0.00 73 1014.6
20260508144508 18 113 3.2 11.3 0.00 0.00 0.00 73 1014.6
20260508143017 18 126 3.2 11.3 0.00 0.00 0.00 72 1014.5
20260508141522 18 110 6.4 12.9 0.00 0.00 0.00 72 1014.4
20260508140003 18 75 4.8 12.9 0.00 0.00 0.00 73 1014.6